Weather History for Bentonville, AR

Change the Weather History Date:

Tuesday, July 30, 2013

  Actual Average Record
Temperature  
Mean Temperature 78 °F -  
Max Temperature 86 °F 89 °F 105 °F (1986)
Min Temperature 69 °F 65 °F 55 °F (1971)
Cooling Degree Days 12    
Growing Degree Days 28 (Base 50)    
Moisture  
Dew Point 70 °F    
Average Humidity 79    
Maximum Humidity 94    
Minimum Humidity 62    
Precipitation  
Precipitation 2.27 in - - ()
Sea Level Pressure  
Sea Level Pressure 30.04 in    
Wind  
Wind Speed 6 mph (SW)    
Max Wind Speed 13 mph    
Max Gust Speed 21 mph    
Visibility 9 miles    
Events Thunderstorm    
Averages and records for this station are not official NWS values.
T = Trace of Precipitation, MM = Missing Value Source: NWS Daily Summary

Daily Weather History Graph

Daily Weather History Graph

Search for Another Location

Airport:

Trip Planner

Search our weather history database for the weather conditions in past years. The results will help you decide how hot, cold, wet, or windy it might be!

Date:

Astronomy

Jul. 30, 2013 Rise Set
Actual Time 6:22 AM CDT 8:23 PM CDT
Civil Twilight 5:53 AM CDT 8:52 PM CDT
Nautical Twilight 5:18 AM CDT 9:27 PM CDT
Astronomical Twilight 4:41 AM CDT 10:04 PM CDT
Moon 12:39 AM CDT (7/30) 2:45 PM CDT (7/30)
Length of Visible Light 14h 58m
Length of Day
14h 01m
Last Quarter, 41% of the Moon is Illuminated
Jul 30
Last Quarter
Aug 6
New
Aug 14
First Quarter
Aug 20
Full
Aug 28
Last Quarter

Hourly Weather History & Observations

Time (CDT) Temp. Heat Index Dew Point Humidity Pressure Visibility Wind Dir Wind Speed Gust Speed Precip Events Conditions
12:15 AM 77.0 °F - 71.6 °F 83% 30.02 in 10.0 mi SE 9.2 mph - N/A   Clear
12:35 AM 77.0 °F - 71.6 °F 83% 30.03 in 10.0 mi SE 6.9 mph - N/A   Partly Cloudy
12:55 AM 75.2 °F - 71.6 °F 89% 30.03 in 10.0 mi SE 6.9 mph - N/A   Scattered Clouds
1:15 AM 75.2 °F - 71.6 °F 89% 30.04 in 8.0 mi SE 5.8 mph - 0.01 in   Scattered Clouds
1:35 AM 75.2 °F - 71.6 °F 89% 30.03 in 7.0 mi ESE 3.5 mph - 0.02 in   Mostly Cloudy
1:55 AM 75.2 °F - 71.6 °F 89% 30.03 in 7.0 mi SE 5.8 mph - N/A   Mostly Cloudy
2:15 AM 75.2 °F - 71.6 °F 89% 30.04 in 7.0 mi Calm Calm - N/A   Mostly Cloudy
2:35 AM 75.2 °F - 71.6 °F 89% 30.04 in 5.0 mi SSE 4.6 mph - N/A   Overcast
2:55 AM 75.2 °F - 71.6 °F 89% 30.04 in 7.0 mi SSE 6.9 mph - N/A   Overcast
3:15 AM 75.2 °F - 71.6 °F 89% 30.06 in 7.0 mi WNW 10.4 mph 16.1 mph N/A Thunderstorm Overcast
3:35 AM 71.6 °F - 66.2 °F 83% 30.05 in 7.0 mi WNW 9.2 mph 20.7 mph N/A Thunderstorm Thunderstorm
3:55 AM 69.8 °F - 66.2 °F 88% 30.04 in 10.0 mi NE 4.6 mph - 0.40 in Thunderstorm Thunderstorm
4:15 AM 69.8 °F - 68.0 °F 94% 30.05 in 3.0 mi NNW 3.5 mph 16.1 mph 0.45 in Thunderstorm Thunderstorm
4:35 AM 71.6 °F - 68.0 °F 88% 30.05 in 5.0 mi SW 8.1 mph 19.6 mph 0.76 in Thunderstorm Thunderstorm
4:55 AM 71.6 °F - 68.0 °F 88% 30.03 in 5.0 mi Calm Calm - 1.12 in Thunderstorm Thunderstorm
5:15 AM 71.6 °F - 68.0 °F 88% 30.04 in 10.0 mi Calm Calm - 0.01 in   Mostly Cloudy
5:35 AM 71.6 °F - 68.0 °F 88% 30.04 in 3.0 mi East 4.6 mph - 0.15 in   Overcast
5:55 AM 71.6 °F - 68.0 °F 88% 30.04 in 1.2 mi East 3.5 mph - 0.54 in Thunderstorm Overcast
6:15 AM 71.6 °F - 69.8 °F 94% 30.04 in 7.0 mi West 6.9 mph - 0.18 in   Overcast
6:35 AM 71.6 °F - 69.8 °F 94% 30.04 in 10.0 mi Calm Calm - 0.18 in   Overcast
6:55 AM 71.6 °F - 69.8 °F 94% 30.05 in 10.0 mi SW 4.6 mph - 0.18 in   Overcast
7:15 AM 71.6 °F - 69.8 °F 94% 30.04 in 10.0 mi SSW 5.8 mph - 0.01 in   Mostly Cloudy
7:35 AM 73.4 °F - 69.8 °F 88% 30.04 in 9.0 mi South 8.1 mph - 0.01 in   Partly Cloudy
7:55 AM 73.4 °F - 69.8 °F 88% 30.06 in 9.0 mi South 4.6 mph - 0.01 in   Scattered Clouds
8:15 AM 71.6 °F - 68.0 °F 88% 30.06 in 10.0 mi South 5.8 mph - N/A   Scattered Clouds
8:35 AM 71.6 °F - 68.0 °F 88% 30.06 in 9.0 mi South 4.6 mph - N/A   Scattered Clouds
9:15 AM 73.4 °F - 68.0 °F 83% 30.07 in 8.0 mi South 4.6 mph - N/A   Mostly Cloudy
9:35 AM 73.4 °F - 69.8 °F 88% 30.06 in 10.0 mi South 6.9 mph - N/A   Mostly Cloudy
9:55 AM 73.4 °F - 69.8 °F 88% 30.06 in 10.0 mi South 3.5 mph - N/A   Mostly Cloudy
10:15 AM 73.4 °F - 69.8 °F 88% 30.07 in 10.0 mi Calm Calm - N/A   Overcast
10:35 AM 75.2 °F - 69.8 °F 83% 30.07 in 10.0 mi Calm Calm - N/A   Mostly Cloudy
10:55 AM 75.2 °F - 69.8 °F 83% 30.07 in 10.0 mi SW 4.6 mph - N/A   Scattered Clouds
11:15 AM 78.8 °F - 69.8 °F 74% 30.07 in 10.0 mi WSW 10.4 mph - N/A   Clear
11:35 AM 80.6 °F 83.9 °F 69.8 °F 70% 30.07 in 10.0 mi SW 10.4 mph - N/A   Partly Cloudy
11:55 AM 80.6 °F 83.9 °F 69.8 °F 70% 30.07 in 10.0 mi SW 12.7 mph 17.3 mph N/A   Partly Cloudy
12:15 PM 80.6 °F 83.9 °F 69.8 °F 70% 30.07 in 10.0 mi SW 9.2 mph - N/A   Partly Cloudy
12:35 PM 80.6 °F 83.9 °F 69.8 °F 70% 30.07 in 10.0 mi SW 12.7 mph - N/A   Scattered Clouds
12:55 PM 82.4 °F 86.3 °F 69.8 °F 66% 30.06 in 10.0 mi West 10.4 mph - N/A   Scattered Clouds
1:15 PM 82.4 °F 86.3 °F 69.8 °F 66% 30.06 in 10.0 mi WSW 12.7 mph 18.4 mph N/A   Mostly Cloudy
1:35 PM 82.4 °F 86.3 °F 69.8 °F 66% 30.06 in 10.0 mi West 8.1 mph - N/A   Scattered Clouds
1:55 PM 82.4 °F 86.3 °F 69.8 °F 66% 30.05 in 10.0 mi West 8.1 mph - N/A   Partly Cloudy
2:15 PM 82.4 °F 87.2 °F 71.6 °F 70% 30.04 in 10.0 mi SW 9.2 mph - N/A   Partly Cloudy
2:35 PM 84.2 °F 89.6 °F 71.6 °F 66% 30.04 in 10.0 mi WSW 9.2 mph - N/A   Mostly Cloudy
2:55 PM 84.2 °F 89.6 °F 71.6 °F 66% 30.04 in 10.0 mi WSW 9.2 mph - N/A   Mostly Cloudy
3:15 PM 84.2 °F 88.4 °F 69.8 °F 62% 30.04 in 10.0 mi WSW 6.9 mph - N/A   Partly Cloudy
3:35 PM 84.2 °F 89.6 °F 71.6 °F 66% 30.03 in 10.0 mi West 5.8 mph - N/A   Scattered Clouds
3:55 PM 84.2 °F 89.6 °F 71.6 °F 66% 30.03 in 10.0 mi West 6.9 mph - N/A   Scattered Clouds
4:15 PM 84.2 °F 89.6 °F 71.6 °F 66% 30.02 in 10.0 mi SSW 6.9 mph - N/A   Mostly Cloudy
4:35 PM 84.2 °F 89.6 °F 71.6 °F 66% 30.02 in 10.0 mi WSW 8.1 mph - N/A   Overcast
4:55 PM 86.0 °F 91.8 °F 71.6 °F 62% 30.02 in 10.0 mi WSW 8.1 mph - N/A   Mostly Cloudy
5:15 PM 86.0 °F 91.8 °F 71.6 °F 62% 30.02 in 10.0 mi WSW 6.9 mph - N/A   Scattered Clouds
5:35 PM 84.2 °F 89.6 °F 71.6 °F 66% 30.02 in 10.0 mi West 6.9 mph - N/A   Mostly Cloudy
5:55 PM 84.2 °F 89.6 °F 71.6 °F 66% 30.02 in 10.0 mi WNW 5.8 mph - N/A   Overcast
6:15 PM 84.2 °F 89.6 °F 71.6 °F 66% 30.02 in 10.0 mi WNW 5.8 mph - N/A   Mostly Cloudy
6:35 PM 84.2 °F 89.6 °F 71.6 °F 66% 30.02 in 10.0 mi West 6.9 mph - N/A   Mostly Cloudy
6:55 PM 82.4 °F 87.2 °F 71.6 °F 70% 30.02 in 10.0 mi WSW 3.5 mph - N/A   Overcast
7:15 PM 82.4 °F 87.2 °F 71.6 °F 70% 30.02 in 10.0 mi SW 9.2 mph - N/A   Mostly Cloudy
7:35 PM 82.4 °F 87.2 °F 71.6 °F 70% 30.02 in 10.0 mi SW 6.9 mph - N/A   Scattered Clouds
7:55 PM 82.4 °F 87.2 °F 71.6 °F 70% 30.02 in 10.0 mi SW 4.6 mph - N/A   Scattered Clouds
8:15 PM 80.6 °F 84.6 °F 71.6 °F 74% 30.02 in 10.0 mi SW 4.6 mph - N/A   Clear
8:35 PM 80.6 °F 84.6 °F 71.6 °F 74% 30.03 in 10.0 mi SW 4.6 mph - N/A   Clear
8:55 PM 78.8 °F - 71.6 °F 78% 30.03 in 10.0 mi WSW 3.5 mph - N/A   Clear
9:15 PM 78.8 °F - 71.6 °F 78% 30.04 in 10.0 mi SW 3.5 mph - N/A   Clear
9:35 PM 78.8 °F - 71.6 °F 78% 30.04 in 10.0 mi Calm Calm - N/A   Clear
9:55 PM 77.0 °F - 71.6 °F 83% 30.05 in 10.0 mi Calm Calm - N/A   Clear
10:15 PM 77.0 °F - 71.6 °F 83% 30.05 in 10.0 mi SSW 3.5 mph - N/A   Scattered Clouds
10:35 PM 77.0 °F - 71.6 °F 83% 30.05 in 10.0 mi Calm Calm - N/A   Mostly Cloudy
10:55 PM 77.0 °F - 71.6 °F 83% 30.05 in 10.0 mi South 3.5 mph - N/A   Mostly Cloudy
11:15 PM 78.8 °F - 71.6 °F 78% 30.05 in 10.0 mi Calm Calm - N/A   Overcast
11:35 PM 77.0 °F - 71.6 °F 83% 30.05 in 10.0 mi SSE 3.5 mph - N/A   Scattered Clouds
11:55 PM 78.8 °F - 71.6 °F 78% 30.06 in 10.0 mi Calm Calm - N/A   Clear